DLH6HT EDDF-LZIB

Flight info

Callsign DLH6HT
Flight time 1h 6m
Altitude 31000
Route CINDY8S/18 CINDY Z74 HAREM DCT ASLEP DCT TAKUT DCT DINKU L603 BESNI/N0441F370 L605 MIQ DCT ALUTU DCT BIBAG Q104 AKIMA DCT BARUG DCT BEGLA DCT KUVEX
Aircraft A320/M-SDE3FGHIRWY/LB1

Departure

Time 2026-05-04 18:16
Airport Frankfurt Main Airport (EDDF)

Arrival

Time 2026-05-04 19:22
Airport M. R. Štefánik Airport (LZIB)
Time Latitude Longitude Altitude Speed Heading
2026-05-04 17:44 50.04453 8.56431 363 ft 0 kts 154°
2026-05-04 18:05 50.04468 8.56420 357 ft 4 kts 154°
2026-05-04 18:05 50.04492 8.56403 361 ft 4 kts 162°
2026-05-04 18:05 50.04515 8.56398 356 ft 4 kts 211°
2026-05-04 18:06 50.04514 8.56374 358 ft 0 kts 250°
2026-05-04 18:09 50.04503 8.56324 358 ft 7 kts 250°
2026-05-04 18:10 50.04479 8.56225 361 ft 11 kts 250°
2026-05-04 18:10 50.04452 8.56111 362 ft 12 kts 250°
2026-05-04 18:10 50.04396 8.56031 356 ft 11 kts 180°
2026-05-04 18:10 50.04325 8.56066 358 ft 11 kts 159°
2026-05-04 18:11 50.04264 8.56033 357 ft 11 kts 238°
2026-05-04 18:11 50.04228 8.55888 356 ft 17 kts 250°
2026-05-04 18:11 50.04178 8.55684 359 ft 23 kts 249°
2026-05-04 18:11 50.04118 8.55430 354 ft 26 kts 250°
2026-05-04 18:12 50.04055 8.55165 356 ft 26 kts 249°
2026-05-04 18:12 50.03989 8.54892 354 ft 28 kts 250°
2026-05-04 18:12 50.03919 8.54600 352 ft 30 kts 250°
2026-05-04 18:12 50.03829 8.54304 354 ft 31 kts 233°
2026-05-04 18:13 50.03746 8.53993 353 ft 32 kts 249°
2026-05-04 18:13 50.03668 8.53669 344 ft 32 kts 249°
2026-05-04 18:13 50.03505 8.53003 335 ft 33 kts 250°
2026-05-04 18:14 50.03428 8.52707 332 ft 20 kts 249°
2026-05-04 18:14 50.03405 8.52618 334 ft 4 kts 243°
2026-05-04 18:14 50.03378 8.52594 336 ft 5 kts 187°
2026-05-04 18:15 50.03367 8.52594 335 ft 0 kts 179°
2026-05-04 18:15 50.03047 8.52598 335 ft 84 kts 180°
2026-05-04 18:15 50.02248 8.52605 335 ft 143 kts 180°
2026-05-04 18:16 50.01123 8.52615 641 ft 163 kts 181°
2026-05-04 18:16 49.99992 8.52632 1373 ft 163 kts 180°
2026-05-04 18:16 49.98828 8.52638 1933 ft 176 kts 181°
2026-05-04 18:17 49.96287 8.53871 2584 ft 221 kts 132°
2026-05-04 18:17 49.95435 8.55964 3144 ft 234 kts 118°
2026-05-04 18:17 49.94083 8.60543 4974 ft 240 kts 101°
2026-05-04 18:18 49.93925 8.63270 5424 ft 264 kts 95°
2026-05-04 18:18 49.93790 8.66148 6182 ft 272 kts 101°
2026-05-04 18:18 49.93217 8.68949 7002 ft 274 kts 121°
2026-05-04 18:18 49.92079 8.71302 7860 ft 274 kts 140°
2026-05-04 18:19 49.89027 8.74912 9612 ft 282 kts 140°
2026-05-04 18:19 49.87767 8.77302 10315 ft 296 kts 126°
2026-05-04 18:19 49.86698 8.80186 10593 ft 321 kts 123°
2026-05-04 18:20 49.85569 8.83309 10911 ft 341 kts 122°
2026-05-04 18:20 49.84404 8.86561 11532 ft 349 kts 122°
2026-05-04 18:20 49.83218 8.89874 12253 ft 354 kts 122°
2026-05-04 18:20 49.82011 8.93228 12981 ft 358 kts 122°
2026-05-04 18:21 49.80786 8.96614 13710 ft 363 kts 122°
2026-05-04 18:21 49.79539 9.00038 14362 ft 367 kts 122°
2026-05-04 18:21 49.78278 9.03493 15021 ft 370 kts 122°
2026-05-04 18:21 49.77008 9.06984 15667 ft 374 kts 120°
2026-05-04 18:22 49.75985 9.10717 16311 ft 381 kts 110°
2026-05-04 18:22 49.75295 9.14692 16930 ft 384 kts 109°
2026-05-04 18:22 49.74294 9.18517 17552 ft 385 kts 120°
2026-05-04 18:22 49.72849 9.22000 18172 ft 385 kts 131°
2026-05-04 18:23 49.71094 9.25134 18720 ft 388 kts 134°
2026-05-04 18:23 49.69304 9.28273 19263 ft 391 kts 134°
2026-05-04 18:23 49.67505 9.31435 19794 ft 393 kts 134°
2026-05-04 18:23 49.65692 9.34623 20339 ft 396 kts 134°
2026-05-04 18:24 49.63871 9.37831 20861 ft 399 kts 133°
2026-05-04 18:24 49.62236 9.41323 21364 ft 405 kts 123°
2026-05-04 18:24 49.61013 9.45268 21859 ft 412 kts 112°
2026-05-04 18:24 49.60110 9.49488 22325 ft 416 kts 110°
2026-05-04 18:25 49.59209 9.53744 22803 ft 419 kts 111°
2026-05-04 18:25 49.58603 9.56573 23118 ft 421 kts 111°
2026-05-04 18:25 49.57678 9.60872 23580 ft 424 kts 111°
2026-05-04 18:25 49.56745 9.65197 23975 ft 427 kts 111°
2026-05-04 18:26 49.55494 9.70969 24462 ft 431 kts 112°
2026-05-04 18:26 49.54540 9.75361 24847 ft 434 kts 112°
2026-05-04 18:26 49.53891 9.78344 25103 ft 435 kts 112°
2026-05-04 18:26 49.52704 9.82617 25469 ft 434 kts 122°
2026-05-04 18:27 49.51101 9.86526 25848 ft 432 kts 131°
2026-05-04 18:27 49.49215 9.90132 26186 ft 433 kts 133°
2026-05-04 18:27 49.47307 9.93736 26531 ft 436 kts 133°
2026-05-04 18:27 49.45387 9.97369 26892 ft 439 kts 133°
2026-05-04 18:28 49.43462 10.01017 27252 ft 441 kts 133°
2026-05-04 18:28 49.41521 10.04690 27610 ft 444 kts 133°
2026-05-04 18:28 49.39571 10.08371 27973 ft 446 kts 133°
2026-05-04 18:28 49.37605 10.12078 28309 ft 448 kts 133°
2026-05-04 18:29 49.35633 10.15792 28641 ft 450 kts 133°
2026-05-04 18:29 49.33650 10.19522 28967 ft 452 kts 133°
2026-05-04 18:29 49.31654 10.23264 29287 ft 455 kts 133°
2026-05-04 18:29 49.29645 10.27026 29590 ft 457 kts 133°
2026-05-04 18:30 49.25595 10.34592 30123 ft 462 kts 133°
2026-05-04 18:30 49.23525 10.38361 30390 ft 461 kts 136°
2026-05-04 18:30 49.21258 10.41808 30779 ft 459 kts 139°
2026-05-04 18:31 49.18976 10.45208 31171 ft 457 kts 139°
2026-05-04 18:31 49.16698 10.48596 31543 ft 456 kts 139°
2026-05-04 18:31 49.14426 10.51969 31923 ft 455 kts 139°
2026-05-04 18:31 49.12159 10.55333 32307 ft 454 kts 139°
2026-05-04 18:32 49.09897 10.58683 32694 ft 452 kts 139°
2026-05-04 18:32 49.07641 10.62017 33069 ft 451 kts 139°
2026-05-04 18:32 49.05388 10.65343 33450 ft 449 kts 139°
2026-05-04 18:32 49.03152 10.68644 33911 ft 446 kts 139°
2026-05-04 18:33 49.00929 10.71926 34272 ft 444 kts 139°
2026-05-04 18:33 48.98710 10.75193 34584 ft 444 kts 139°
2026-05-04 18:33 48.96517 10.78410 34855 ft 444 kts 139°
2026-05-04 18:33 48.94290 10.81665 35120 ft 444 kts 139°
2026-05-04 18:34 48.92063 10.84915 35373 ft 444 kts 139°
2026-05-04 18:34 48.89838 10.88166 35628 ft 444 kts 139°
2026-05-04 18:34 48.87616 10.91423 35866 ft 444 kts 139°
2026-05-04 18:34 48.85391 10.94686 36088 ft 445 kts 139°
2026-05-04 18:35 48.83167 10.97942 36319 ft 445 kts 139°
2026-05-04 18:35 48.80933 11.01199 36528 ft 445 kts 139°
2026-05-04 18:35 48.78702 11.04446 36757 ft 445 kts 139°
2026-05-04 18:35 48.76556 11.07844 36911 ft 449 kts 130°
2026-05-04 18:36 48.74988 11.11959 36950 ft 456 kts 113°
2026-05-04 18:36 48.74232 11.16632 36947 ft 461 kts 97°
2026-05-04 18:36 48.74067 11.21496 36946 ft 463 kts 94°
2026-05-04 18:37 48.73487 11.31179 36944 ft 460 kts 105°
2026-05-04 18:37 48.72059 11.40630 36941 ft 460 kts 105°
2026-05-04 18:38 48.70606 11.50075 36946 ft 461 kts 105°
2026-05-04 18:38 48.69147 11.59530 36950 ft 461 kts 105°
2026-05-04 18:39 48.67682 11.68984 36951 ft 461 kts 105°
2026-05-04 18:39 48.66215 11.78430 36950 ft 461 kts 106°
2026-05-04 18:40 48.64735 11.87862 36935 ft 461 kts 105°
2026-05-04 18:40 48.63252 11.97292 36935 ft 461 kts 106°
2026-05-04 18:41 48.61755 12.06717 36934 ft 461 kts 106°
2026-05-04 18:41 48.60249 12.16134 36937 ft 461 kts 106°
2026-05-04 18:42 48.58738 12.25553 36917 ft 461 kts 106°
2026-05-04 18:42 48.57226 12.34965 36921 ft 461 kts 106°
2026-05-04 18:43 48.55704 12.44377 36914 ft 461 kts 106°
2026-05-04 18:43 48.54175 12.53776 36916 ft 461 kts 106°
2026-05-04 18:44 48.52632 12.63167 36912 ft 461 kts 106°
2026-05-04 18:44 48.51080 12.72553 36911 ft 461 kts 106°
2026-05-04 18:45 48.49529 12.81935 36909 ft 461 kts 106°
2026-05-04 18:45 48.47978 12.91321 36909 ft 461 kts 106°
2026-05-04 18:46 48.46420 13.00699 36911 ft 461 kts 106°
2026-05-04 18:46 48.44851 13.10070 36902 ft 461 kts 106°
2026-05-04 18:47 48.43280 13.19433 36903 ft 461 kts 106°
2026-05-04 18:47 48.41699 13.28784 36902 ft 461 kts 106°
2026-05-04 18:48 48.39669 13.37903 36901 ft 459 kts 112°
2026-05-04 18:48 48.37478 13.46913 36891 ft 459 kts 112°
2026-05-04 18:49 48.35279 13.55926 36892 ft 459 kts 112°
2026-05-04 18:49 48.33073 13.64939 36897 ft 459 kts 112°
2026-05-04 18:50 48.30864 13.73942 36902 ft 459 kts 112°
2026-05-04 18:50 48.28652 13.82952 36727 ft 461 kts 112°
2026-05-04 18:50 48.27543 13.87455 36319 ft 459 kts 112°
2026-05-04 18:51 48.26433 13.91945 35927 ft 458 kts 112°
2026-05-04 18:51 48.25323 13.96423 35546 ft 458 kts 112°
2026-05-04 18:51 48.24211 14.00892 35178 ft 457 kts 112°
2026-05-04 18:51 48.23095 14.05356 34807 ft 457 kts 112°
2026-05-04 18:52 48.21978 14.09816 34433 ft 457 kts 112°
2026-05-04 18:52 48.20861 14.14266 34076 ft 456 kts 112°
2026-05-04 18:52 48.19744 14.18719 33690 ft 456 kts 112°
2026-05-04 18:52 48.18627 14.23169 33287 ft 457 kts 112°
2026-05-04 18:53 48.17509 14.27633 32852 ft 458 kts 112°
2026-05-04 18:53 48.16387 14.32105 32453 ft 459 kts 112°
2026-05-04 18:53 48.15258 14.36587 32060 ft 460 kts 112°
2026-05-04 18:53 48.14122 14.41078 31673 ft 462 kts 112°
2026-05-04 18:54 48.12980 14.45571 31290 ft 463 kts 112°
2026-05-04 18:54 48.11833 14.50071 30957 ft 463 kts 112°
2026-05-04 18:54 48.10687 14.54569 30872 ft 462 kts 112°
2026-05-04 18:55 48.08392 14.63573 30905 ft 464 kts 112°
2026-05-04 18:55 48.04920 14.77109 30898 ft 465 kts 112°
2026-05-04 18:56 48.02593 14.86135 30920 ft 465 kts 112°
2026-05-04 18:56 48.00273 14.95103 30315 ft 460 kts 112°
2026-05-04 18:57 47.99117 14.99553 29657 ft 458 kts 112°
2026-05-04 18:57 47.97967 15.03962 28937 ft 455 kts 112°
2026-05-04 18:57 47.96820 15.08360 28164 ft 453 kts 112°
2026-05-04 18:57 47.95681 15.12723 27517 ft 450 kts 112°
2026-05-04 18:58 47.94551 15.17056 26864 ft 446 kts 112°
2026-05-04 18:58 47.93433 15.21345 26228 ft 443 kts 112°
2026-05-04 18:58 47.92453 15.25681 25623 ft 440 kts 102°
2026-05-04 18:58 47.92106 15.30194 25016 ft 437 kts 94°
2026-05-04 18:59 47.91906 15.34700 24421 ft 434 kts 94°
2026-05-04 18:59 47.91779 15.37755 24022 ft 431 kts 94°
2026-05-04 18:59 47.91599 15.42194 23527 ft 426 kts 93°
2026-05-04 18:59 47.91416 15.46579 22971 ft 422 kts 94°
2026-05-04 19:00 47.91229 15.50939 22643 ft 421 kts 94°
2026-05-04 19:00 47.91040 15.55265 22331 ft 418 kts 94°
2026-05-04 19:00 47.90850 15.59578 22015 ft 418 kts 94°
2026-05-04 19:00 47.90656 15.63935 21694 ft 419 kts 94°
2026-05-04 19:01 47.90463 15.68232 21390 ft 412 kts 95°
2026-05-04 19:01 47.90271 15.72483 21083 ft 410 kts 94°
2026-05-04 19:01 47.90076 15.76700 20789 ft 406 kts 95°
2026-05-04 19:01 47.89880 15.80885 20482 ft 404 kts 95°
2026-05-04 19:02 47.89691 15.84925 20184 ft 403 kts 96°
2026-05-04 19:02 47.89517 15.88663 19919 ft 399 kts 95°
2026-05-04 19:02 47.89327 15.92773 19628 ft 396 kts 96°
2026-05-04 19:02 47.89135 15.96859 19339 ft 395 kts 96°
2026-05-04 19:03 47.88941 16.00928 19053 ft 392 kts 95°
2026-05-04 19:03 47.88745 16.04970 18747 ft 389 kts 96°
2026-05-04 19:03 47.88603 16.08980 18293 ft 387 kts 90°
2026-05-04 19:03 47.89066 16.12909 17823 ft 386 kts 74°
2026-05-04 19:04 47.89918 16.16706 17399 ft 386 kts 72°
2026-05-04 19:04 47.90784 16.20483 16979 ft 384 kts 72°
2026-05-04 19:04 47.91650 16.24235 16562 ft 382 kts 72°
2026-05-04 19:04 47.92512 16.27971 16144 ft 380 kts 72°
2026-05-04 19:05 47.93362 16.31676 15690 ft 376 kts 72°
2026-05-04 19:05 47.94201 16.35353 15314 ft 374 kts 73°
2026-05-04 19:05 47.95034 16.39011 14944 ft 370 kts 73°
2026-05-04 19:05 47.95860 16.42638 14444 ft 369 kts 73°
2026-05-04 19:06 47.96684 16.46267 13930 ft 369 kts 73°
2026-05-04 19:06 47.97493 16.49845 13384 ft 368 kts 73°
2026-05-04 19:06 47.98317 16.53501 12846 ft 366 kts 73°
2026-05-04 19:06 47.99115 16.57035 12491 ft 362 kts 73°
2026-05-04 19:07 47.99915 16.60583 12177 ft 360 kts 73°
2026-05-04 19:07 48.00458 16.62994 11538 ft 367 kts 73°
2026-05-04 19:07 48.01271 16.66608 11004 ft 365 kts 73°
2026-05-04 19:07 48.02324 16.71295 10519 ft 355 kts 73°
2026-05-04 19:08 48.03098 16.74757 10161 ft 348 kts 73°
2026-05-04 19:08 48.03612 16.77057 9928 ft 344 kts 73°
2026-05-04 19:08 48.04362 16.80421 9548 ft 339 kts 73°
2026-05-04 19:08 48.05102 16.83738 9161 ft 334 kts 73°
2026-05-04 19:09 48.05832 16.87001 8783 ft 329 kts 73°
2026-05-04 19:09 48.06550 16.90223 8452 ft 322 kts 73°
2026-05-04 19:09 48.07246 16.93357 8231 ft 314 kts 73°
2026-05-04 19:09 48.07921 16.96411 8050 ft 303 kts 73°
2026-05-04 19:10 48.08568 16.99347 8030 ft 294 kts 73°
2026-05-04 19:10 48.08991 17.01272 8034 ft 294 kts 73°
2026-05-04 19:10 48.09843 17.05150 8036 ft 294 kts 73°
2026-05-04 19:10 48.10482 17.08054 8035 ft 294 kts 73°
2026-05-04 19:11 48.11122 17.10954 8022 ft 293 kts 73°
2026-05-04 19:11 48.11751 17.13801 7894 ft 282 kts 73°
2026-05-04 19:11 48.12353 17.16531 7768 ft 271 kts 73°
2026-05-04 19:11 48.12929 17.19160 7626 ft 261 kts 74°
2026-05-04 19:12 48.13487 17.21721 7347 ft 257 kts 74°
2026-05-04 19:12 48.14592 17.26785 6697 ft 255 kts 74°
2026-05-04 19:12 48.15141 17.29301 6383 ft 253 kts 74°
2026-05-04 19:13 48.15677 17.31761 6079 ft 252 kts 74°
2026-05-04 19:13 48.16219 17.34256 6032 ft 254 kts 74°
2026-05-04 19:13 48.16765 17.36780 6037 ft 256 kts 74°
2026-05-04 19:13 48.17519 17.39153 6036 ft 258 kts 55°
2026-05-04 19:14 48.18788 17.41094 6030 ft 259 kts 38°
2026-05-04 19:14 48.20227 17.42714 6030 ft 259 kts 36°
2026-05-04 19:14 48.21673 17.44266 6038 ft 260 kts 36°
2026-05-04 19:14 48.23142 17.45840 6040 ft 259 kts 36°
2026-05-04 19:15 48.24604 17.47407 5884 ft 255 kts 36°
2026-05-04 19:15 48.26021 17.48922 5768 ft 245 kts 36°
2026-05-04 19:15 48.27389 17.50378 5621 ft 238 kts 36°
2026-05-04 19:15 48.28858 17.51453 5381 ft 235 kts
2026-05-04 19:16 48.30445 17.51256 5103 ft 227 kts 333°
2026-05-04 19:16 48.31734 17.49950 4645 ft 223 kts 305°
2026-05-04 19:16 48.32491 17.48010 4531 ft 212 kts 281°
2026-05-04 19:16 48.32672 17.45869 4413 ft 202 kts 259°
2026-05-04 19:17 48.32328 17.43903 4249 ft 190 kts 239°
2026-05-04 19:17 48.31583 17.42354 4053 ft 179 kts 221°
2026-05-04 19:17 48.30702 17.41080 3836 ft 174 kts 221°
2026-05-04 19:17 48.29836 17.39824 3616 ft 172 kts 220°
2026-05-04 19:18 48.28977 17.38578 3396 ft 171 kts 219°
2026-05-04 19:18 48.28124 17.37340 3177 ft 170 kts 219°
2026-05-04 19:18 48.27276 17.36111 2942 ft 168 kts 219°
2026-05-04 19:18 48.26448 17.34911 2733 ft 162 kts 218°
2026-05-04 19:19 48.25667 17.33777 2521 ft 149 kts 218°
2026-05-04 19:19 48.24964 17.32758 2348 ft 137 kts 216°
2026-05-04 19:19 48.24289 17.31783 2164 ft 133 kts 216°
2026-05-04 19:19 48.23625 17.30825 1993 ft 133 kts 216°
2026-05-04 19:20 48.22963 17.29869 1820 ft 131 kts 216°
2026-05-04 19:20 48.22302 17.28916 1649 ft 133 kts 217°
2026-05-04 19:20 48.21640 17.27959 1463 ft 132 kts 217°
2026-05-04 19:20 48.20982 17.27009 1294 ft 133 kts 220°
2026-05-04 19:21 48.20310 17.26039 1107 ft 135 kts 221°
2026-05-04 19:21 48.19622 17.25047 930 ft 141 kts 221°
2026-05-04 19:21 48.18918 17.24031 741 ft 141 kts 223°
2026-05-04 19:21 48.18210 17.23010 564 ft 142 kts 223°
2026-05-04 19:22 48.17516 17.22014 434 ft 128 kts 225°
2026-05-04 19:22 48.17001 17.21268 426 ft 78 kts 224°
2026-05-04 19:22 48.16682 17.20807 433 ft 37 kts 224°
2026-05-04 19:22 48.16585 17.20665 436 ft 11 kts 231°
2026-05-04 19:23 48.16587 17.20569 430 ft 9 kts 306°
2026-05-04 19:23 48.16616 17.20520 437 ft 5 kts 312°
2026-05-04 19:23 48.16641 17.20480 436 ft 5 kts 314°
2026-05-04 19:23 48.16655 17.20459 444 ft 0 kts 314°
2026-05-04 19:25 48.16662 17.20448 433 ft 5 kts 314°
2026-05-04 19:25 48.16708 17.20377 439 ft 11 kts 314°
2026-05-04 19:26 48.16757 17.20299 429 ft 10 kts 314°
2026-05-04 19:26 48.16802 17.20232 444 ft 9 kts 315°
2026-05-04 19:26 48.16841 17.20173 433 ft 8 kts 315°
2026-05-04 19:26 48.16881 17.20163 440 ft 5 kts 34°
2026-05-04 19:27 48.16914 17.20186 439 ft 5 kts 350°
2026-05-04 19:27 48.16938 17.20161 439 ft 4 kts 319°
2026-05-04 19:27 48.16948 17.20148 436 ft 1 kts 318°
2026-05-04 19:27 48.16949 17.20146 436 ft 0 kts 318°